| time (UTC) | temp C | wind direction | speed KPH | gust KPH | rain 1hr cm | rain 24hr cm | rain mn cm | humidity % | barometer mb |
| 20260904222002 | 28 | 173 | 4.8 | 9.7 | 0.00 | 0.00 | 0.00 | 32 | 1021.3 |
| 20260904221559 | 29 | 165 | 4.8 | 9.7 | 0.00 | 0.00 | 0.00 | 32 | 1021.4 |
| 20260904221002 | 29 | 204 | 1.6 | 6.4 | 0.00 | 0.00 | 0.00 | 31 | 1021.3 |
| 20260904220509 | 29 | 271 | 1.6 | 9.7 | 0.00 | 0.00 | 0.00 | 31 | 1021.4 |
| 20260904220108 | 29 | 240 | 1.6 | 9.7 | 0.00 | 0.00 | 0.00 | 31 | 1021.4 |
| 20260904215552 | 30 | 223 | 3.2 | 9.7 | 0.00 | 0.00 | 0.00 | 31 | 1021.4 |
| 20260904215104 | 30 | 184 | 1.6 | 9.7 | 0.00 | 0.00 | 0.00 | 31 | 1021.4 |
| 20260904214555 | 29 | 58 | 1.6 | 9.7 | 0.00 | 0.00 | 0.00 | 32 | 1021.4 |
| 20260904214101 | 28 | 111 | 1.6 | 14.5 | 0.00 | 0.00 | 0.00 | 33 | 1021.4 |
| 20260904213555 | 28 | 139 | 4.8 | 14.5 | 0.00 | 0.00 | 0.00 | 32 | 1021.5 |
| 20260904213108 | 29 | 126 | 8.0 | 14.5 | 0.00 | 0.00 | 0.00 | 33 | 1021.5 |
| 20260904212507 | 29 | 195 | 3.2 | 14.5 | 0.00 | 0.00 | 0.00 | 32 | 1021.6 |
| 20260904212101 | 29 | 134 | 9.7 | 14.5 | 0.00 | 0.00 | 0.00 | 33 | 1021.7 |
| 20260904211504 | 29 | 144 | 8.0 | 17.7 | 0.00 | 0.00 | 0.00 | 32 | 1021.7 |
| 20260904211059 | 30 | 116 | 6.4 | 17.7 | 0.00 | 0.00 | 0.00 | 31 | 1021.7 |
| 20260904210503 | 30 | 93 | 3.2 | 12.9 | 0.00 | 0.00 | 0.00 | 30 | 1021.8 |
| 20260904210101 | 31 | 101 | 6.4 | 14.5 | 0.00 | 0.00 | 0.00 | 30 | 1021.8 |
| 20260904205551 | 31 | 180 | 6.4 | 14.5 | 0.00 | 0.00 | 0.00 | 30 | 1021.9 |
| 20260904205059 | 31 | 174 | 6.4 | 14.5 | 0.00 | 0.00 | 0.00 | 30 | 1021.9 |
| 20260904204503 | 31 | 128 | 3.2 | 19.3 | 0.00 | 0.00 | 0.00 | 30 | 1022.1 |
| 20260904204010 | 31 | 169 | 4.8 | 19.3 | 0.00 | 0.00 | 0.00 | 30 | 1022.2 |
| 20260904203606 | 31 | 267 | 4.8 | 16.1 | 0.00 | 0.00 | 0.00 | 30 | 1022.2 |
| 20260904203015 | 30 | 296 | 6.4 | 14.5 | 0.00 | 0.00 | 0.00 | 30 | 1022.4 |
| 20260904202605 | 31 | 166 | 9.7 | 20.9 | 0.00 | 0.00 | 0.00 | 30 | 1022.2 |
| 20260904202006 | 31 | 190 | 9.7 | 19.3 | 0.00 | 0.00 | 0.00 | 29 | 1022.3 |
| 20260904201606 | 30 | 197 | 8.0 | 19.3 | 0.00 | 0.00 | 0.00 | 30 | 1022.3 |
| 20260904201054 | 30 | 220 | 4.8 | 12.9 | 0.00 | 0.00 | 0.00 | 32 | 1022.4 |
| 20260904200601 | 30 | 261 | 4.8 | 12.9 | 0.00 | 0.00 | 0.00 | 32 | 1022.4 |
| 20260904200004 | 30 | 214 | 1.6 | 8.0 | 0.00 | 0.00 | 0.00 | 31 | 1022.6 |
| 20260904195512 | 30 | 302 | 1.6 | 14.5 | 0.00 | 0.00 | 0.00 | 32 | 1022.6 |
| 20260904195107 | 29 | 269 | 4.8 | 14.5 | 0.00 | 0.00 | 0.00 | 31 | 1022.7 |
| 20260904194508 | 30 | 168 | 8.0 | 14.5 | 0.00 | 0.00 | 0.00 | 32 | 1022.8 |
| 20260904194104 | 29 | 195 | 4.8 | 11.3 | 0.00 | 0.00 | 0.00 | 31 | 1022.9 |
| 20260904193507 | 29 | 244 | 4.8 | 11.3 | 0.00 | 0.00 | 0.00 | 32 | 1023.0 |
| 20260904193103 | 30 | 235 | 4.8 | 14.5 | 0.00 | 0.00 | 0.00 | 32 | 1023.1 |
| 20260904192558 | 29 | 196 | 6.4 | 14.5 | 0.00 | 0.00 | 0.00 | 32 | 1023.1 |
| 20260904192045 | 29 | 61 | 0.0 | 9.7 | 0.00 | 0.00 | 0.00 | 33 | 1023.2 |
| 20260904191554 | 28 | 269 | 1.6 | 9.7 | 0.00 | 0.00 | 0.00 | 33 | 1023.2 |
| 20260904191101 | 28 | 169 | 1.6 | 11.3 | 0.00 | 0.00 | 0.00 | 34 | 1023.3 |
| 20260904190507 | 28 | 292 | 3.2 | 11.3 | 0.00 | 0.00 | 0.00 | 34 | 1023.3 |
| 20260904190058 | 28 | 225 | 1.6 | 14.5 | 0.00 | 0.00 | 0.00 | 34 | 1023.4 |
| 20260904185504 | 28 | 156 | 8.0 | 16.1 | 0.00 | 0.00 | 0.00 | 33 | 1023.4 |
| 20260904185059 | 28 | 147 | 9.7 | 19.3 | 0.00 | 0.00 | 0.00 | 34 | 1023.5 |
| 20260904184503 | 28 | 172 | 4.8 | 17.7 | 0.00 | 0.00 | 0.00 | 33 | 1023.5 |
| 20260904184100 | 28 | 213 | 4.8 | 17.7 | 0.00 | 0.00 | 0.00 | 33 | 1023.6 |
| 20260904183550 | 28 | 102 | 8.0 | 22.5 | 0.00 | 0.00 | 0.00 | 33 | 1023.6 |
| 20260904183113 | 28 | 180 | 9.7 | 17.7 | 0.00 | 0.00 | 0.00 | 33 | 1023.7 |
| 20260904182501 | 28 | 190 | 4.8 | 17.7 | 0.00 | 0.00 | 0.00 | 34 | 1023.8 |
| 20260904182012 | 27 | 204 | 8.0 | 14.5 | 0.00 | 0.00 | 0.00 | 35 | 1023.8 |
| 20260904181612 | 27 | 46 | 4.8 | 14.5 | 0.00 | 0.00 | 0.00 | 34 | 1023.9 |
| 20260904181008 | 28 | 203 | 8.0 | 14.5 | 0.00 | 0.00 | 0.00 | 34 | 1023.9 |
| 20260904180517 | 28 | 238 | 1.6 | 16.1 | 0.00 | 0.00 | 0.00 | 35 | 1024.0 |
| 20260904180059 | 27 | 200 | 6.4 | 12.9 | 0.00 | 0.00 | 0.00 | 36 | 1024.0 |
| 20260904175549 | 27 | 209 | 0.0 | 8.0 | 0.00 | 0.00 | 0.00 | 37 | 1024.1 |
| 20260904175100 | 26 | 30 | 1.6 | 11.3 | 0.00 | 0.00 | 0.00 | 37 | 1024.2 |
| 20260904174605 | 27 | 288 | 3.2 | 11.3 | 0.00 | 0.00 | 0.00 | 37 | 1024.2 |
| 20260904174006 | 27 | 261 | 4.8 | 11.3 | 0.00 | 0.00 | 0.00 | 37 | 1024.2 |
| 20260904173605 | 27 | 173 | 4.8 | 9.7 | 0.00 | 0.00 | 0.00 | 37 | 1024.2 |
| 20260904173013 | 27 | 153 | 1.6 | 12.9 | 0.00 | 0.00 | 0.00 | 37 | 1024.2 |
| 20260904172606 | 26 | 175 | 4.8 | 12.9 | 0.00 | 0.00 | 0.00 | 37 | 1024.2 |
| 20260904172055 | 27 | 171 | 4.8 | 8.0 | 0.00 | 0.00 | 0.00 | 37 | 1024.3 |
| 20260904171622 | 26 | 186 | 1.6 | 9.7 | 0.00 | 0.00 | 0.00 | 38 | 1024.2 |
| 20260904171055 | 26 | 343 | 4.8 | 9.7 | 0.00 | 0.00 | 0.00 | 38 | 1024.2 |
| 20260904170546 | 26 | 350 | 1.6 | 6.4 | 0.00 | 0.00 | 0.00 | 39 | 1024.3 |
| 20260904170055 | 25 | 343 | 0.0 | 8.0 | 0.00 | 0.00 | 0.00 | 39 | 1024.1 |
| 20260904165603 | 25 | 138 | 4.8 | 8.0 | 0.00 | 0.00 | 0.00 | 40 | 1024.2 |
| 20260904165006 | 25 | 284 | 3.2 | 12.9 | 0.00 | 0.00 | 0.00 | 41 | 1024.3 |
| 20260904164601 | 25 | 279 | 4.8 | 12.9 | 0.00 | 0.00 | 0.00 | 40 | 1024.2 |
| 20260904164003 | 25 | 286 | 6.4 | 12.9 | 0.00 | 0.00 | 0.00 | 41 | 1024.3 |
| 20260904163558 | 25 | 146 | 3.2 | 9.7 | 0.00 | 0.00 | 0.00 | 41 | 1024.2 |
| 20260904163001 | 25 | 278 | 3.2 | 6.4 | 0.00 | 0.00 | 0.00 | 40 | 1024.2 |
| 20260904162559 | 25 | 349 | 1.6 | 8.0 | 0.00 | 0.00 | 0.00 | 41 | 1024.3 |
| 20260904162048 | 25 | 284 | 3.2 | 9.7 | 0.00 | 0.00 | 0.00 | 41 | 1024.1 |
| 20260904161556 | 25 | 292 | 0.0 | 9.7 | 0.00 | 0.00 | 0.00 | 41 | 1024.2 |
| 20260904161106 | 24 | 162 | 3.2 | 9.7 | 0.00 | 0.00 | 0.00 | 41 | 1024.2 |
| 20260904160511 | 24 | 63 | 3.2 | 8.0 | 0.00 | 0.00 | 0.00 | 42 | 1024.1 |
| 20260904160107 | 23 | 61 | 3.2 | 6.4 | 0.00 | 0.00 | 0.00 | 44 | 1024.1 |
| 20260904155506 | 23 | 134 | 0.0 | 6.4 | 0.00 | 0.00 | 0.00 | 45 | 1024.0 |
| 20260904155102 | 22 | 75 | 1.6 | 6.4 | 0.00 | 0.00 | 0.00 | 47 | 1024.0 |
| 20260904154503 | 22 | 61 | 1.6 | 4.8 | 0.00 | 0.00 | 0.00 | 50 | 1024.1 |
| 20260904154015 | 21 | 126 | 1.6 | 4.8 | 0.00 | 0.00 | 0.00 | 50 | 1024.1 |
| 20260904153502 | 21 | 107 | 1.6 | 3.2 | 0.00 | 0.00 | 0.00 | 51 | 1024.0 |
| 20260904153017 | 21 | 96 | 0.0 | 3.2 | 0.00 | 0.00 | 0.00 | 51 | 1024.0 |
| 20260904152501 | 21 | 87 | 0.0 | 3.2 | 0.00 | 0.00 | 0.00 | 50 | 1024.0 |
| 20260904152009 | 21 | 97 | 1.6 | 4.8 | 0.00 | 0.00 | 0.00 | 50 | 1024.0 |
| 20260904151606 | 21 | 111 | 1.6 | 4.8 | 0.00 | 0.00 | 0.00 | 50 | 1024.0 |
| 20260904151054 | 21 | 111 | 1.6 | 4.8 | 0.00 | 0.00 | 0.00 | 50 | 1023.9 |
| 20260904150602 | 21 | 126 | 1.6 | 6.4 | 0.00 | 0.00 | 0.00 | 50 | 1023.9 |
| 20260904150005 | 21 | 86 | 3.2 | 9.7 | 0.00 | 0.00 | 0.00 | 51 | 1023.8 |
| 20260904145513 | 21 | 133 | 3.2 | 8.0 | 0.00 | 0.00 | 0.00 | 52 | 1023.9 |
| 20260904145020 | 20 | 134 | 4.8 | 9.7 | 0.00 | 0.00 | 0.00 | 52 | 1023.9 |
| 20260904144528 | 20 | 138 | 3.2 | 9.7 | 0.00 | 0.00 | 0.00 | 53 | 1023.8 |
| 20260904144036 | 20 | 103 | 4.8 | 9.7 | 0.00 | 0.00 | 0.00 | 52 | 1023.7 |
| 20260904143548 | 20 | 117 | 4.8 | 9.7 | 0.00 | 0.00 | 0.00 | 51 | 1023.7 |
| 20260904143104 | 20 | 99 | 4.8 | 9.7 | 0.00 | 0.00 | 0.00 | 51 | 1023.7 |
| 20260904142600 | 20 | 100 | 4.8 | 11.3 | 0.00 | 0.00 | 0.00 | 52 | 1023.6 |
| 20260904142047 | 19 | 144 | 6.4 | 9.7 | 0.00 | 0.00 | 0.00 | 52 | 1023.6 |
| 20260904141605 | 18 | 115 | 3.2 | 9.7 | 0.00 | 0.00 | 0.00 | 52 | 1023.5 |
| 20260904141106 | 18 | 90 | 6.4 | 9.7 | 0.00 | 0.00 | 0.00 | 52 | 1023.5 |
| 20260904140505 | 18 | 120 | 4.8 | 11.3 | 0.00 | 0.00 | 0.00 | 52 | 1023.5 |
| 20260904140030 | 18 | 119 | 4.8 | 11.3 | 0.00 | 0.00 | 0.00 | 53 | 1023.5 |
| 20260904135505 | 17 | 115 | 4.8 | 9.7 | 0.00 | 0.00 | 0.00 | 53 | 1023.4 |
| 20260904135012 | 17 | 133 | 3.2 | 9.7 | 0.00 | 0.00 | 0.00 | 54 | 1023.3 |
| 20260904134501 | 17 | 105 | 3.2 | 6.4 | 0.00 | 0.00 | 0.00 | 54 | 1023.3 |
| 20260904134009 | 17 | 82 | 3.2 | 6.4 | 0.00 | 0.00 | 0.00 | 54 | 1023.2 |
| 20260904133608 | 17 | 104 | 3.2 | 11.3 | 0.00 | 0.00 | 0.00 | 55 | 1023.2 |
| 20260904133057 | 17 | 101 | 3.2 | 11.3 | 0.00 | 0.00 | 0.00 | 55 | 1023.1 |
| 20260904132605 | 16 | 101 | 4.8 | 9.7 | 0.00 | 0.00 | 0.00 | 56 | 1023.1 |
| 20260904132056 | 16 | 103 | 3.2 | 9.7 | 0.00 | 0.00 | 0.00 | 57 | 1023.0 |
| 20260904131548 | 16 | 94 | 4.8 | 9.7 | 0.00 | 0.00 | 0.00 | 57 | 1022.9 |
| 20260904131055 | 16 | 103 | 3.2 | 4.8 | 0.00 | 0.00 | 0.00 | 57 | 1022.9 |
| 20260904130604 | 16 | 119 | 0.0 | 1.6 | 0.00 | 0.00 | 0.00 | 57 | 1022.8 |
| 20260904130007 | 16 | 119 | 0.0 | 3.2 | 0.00 | 0.00 | 0.00 | 56 | 1022.8 |
| 20260904125603 | 16 | 119 | 0.0 | 4.8 | 0.00 | 0.00 | 0.00 | 56 | 1022.7 |
| 20260904125007 | 16 | 117 | 1.6 | 6.4 | 0.00 | 0.00 | 0.00 | 56 | 1022.6 |
| 20260904124603 | 16 | 138 | 3.2 | 9.7 | 0.00 | 0.00 | 0.00 | 56 | 1022.5 |
| 20260904124004 | 16 | 123 | 4.8 | 9.7 | 0.00 | 0.00 | 0.00 | 56 | 1022.5 |
| 20260904123600 | 16 | 101 | 3.2 | 8.0 | 0.00 | 0.00 | 0.00 | 56 | 1022.4 |
| 20260904123049 | 16 | 117 | 6.4 | 9.7 | 0.00 | 0.00 | 0.00 | 56 | 1022.4 |
| 20260904122558 | 16 | 123 | 4.8 | 9.7 | 0.00 | 0.00 | 0.00 | 57 | 1022.3 |
| 20260904122049 | 16 | 111 | 4.8 | 9.7 | 0.00 | 0.00 | 0.00 | 57 | 1022.2 |
| 20260904121559 | 16 | 107 | 6.4 | 9.7 | 0.00 | 0.00 | 0.00 | 57 | 1022.2 |
| 20260904121051 | 16 | 106 | 6.4 | 8.0 | 0.00 | 0.00 | 0.00 | 57 | 1022.2 |
| 20260904120540 | 17 | 101 | 4.8 | 9.7 | 0.00 | 0.00 | 0.00 | 57 | 1022.2 |
| 20260904120051 | 17 | 91 | 4.8 | 6.4 | 0.00 | 0.00 | 0.00 | 56 | 1022.2 |
| 20260904115558 | 17 | 102 | 3.2 | 6.4 | 0.00 | 0.00 | 0.00 | 55 | 1022.2 |
| 20260904115106 | 17 | 105 | 3.2 | 8.0 | 0.00 | 0.00 | 0.00 | 55 | 1022.2 |
| 20260904114555 | 17 | 105 | 4.8 | 8.0 | 0.00 | 0.00 | 0.00 | 54 | 1022.0 |
| 20260904114102 | 17 | 72 | 4.8 | 8.0 | 0.00 | 0.00 | 0.00 | 54 | 1021.9 |
| 20260904113555 | 17 | 82 | 4.8 | 8.0 | 0.00 | 0.00 | 0.00 | 54 | 1022.0 |
| 20260904113103 | 17 | 84 | 6.4 | 12.9 | 0.00 | 0.00 | 0.00 | 54 | 1022.0 |
| 20260904112509 | 17 | 107 | 4.8 | 12.9 | 0.00 | 0.00 | 0.00 | 54 | 1022.0 |
| 20260904112100 | 17 | 71 | 4.8 | 9.7 | 0.00 | 0.00 | 0.00 | 54 | 1021.9 |
| 20260904111504 | 17 | 79 | 4.8 | 8.0 | 0.00 | 0.00 | 0.00 | 54 | 1021.9 |
| 20260904111012 | 17 | 95 | 3.2 | 8.0 | 0.00 | 0.00 | 0.00 | 54 | 1022.0 |
| 20260904110520 | 17 | 104 | 3.2 | 8.0 | 0.00 | 0.00 | 0.00 | 54 | 1021.9 |
| 20260904110027 | 17 | 96 | 3.2 | 8.0 | 0.00 | 0.00 | 0.00 | 54 | 1022.0 |
| 20260904105538 | 17 | 63 | 3.2 | 12.9 | 0.00 | 0.00 | 0.00 | 54 | 1022.0 |
| 20260904105045 | 17 | 78 | 6.4 | 12.9 | 0.00 | 0.00 | 0.00 | 55 | 1021.9 |
| 20260904104556 | 17 | 83 | 4.8 | 11.3 | 0.00 | 0.00 | 0.00 | 55 | 1021.9 |
| 20260904104042 | 17 | 77 | 4.8 | 9.7 | 0.00 | 0.00 | 0.00 | 56 | 1021.9 |
| 20260904103549 | 17 | 68 | 4.8 | 8.0 | 0.00 | 0.00 | 0.00 | 56 | 1021.8 |
| 20260904103057 | 17 | 84 | 3.2 | 8.0 | 0.00 | 0.00 | 0.00 | 55 | 1021.9 |
| 20260904102605 | 17 | 92 | 4.8 | 9.7 | 0.00 | 0.00 | 0.00 | 55 | 1021.8 |
| 20260904102008 | 17 | 71 | 6.4 | 9.7 | 0.00 | 0.00 | 0.00 | 56 | 1021.8 |
| 20260904101516 | 17 | 92 | 3.2 | 9.7 | 0.00 | 0.00 | 0.00 | 57 | 1021.7 |
| 20260904101023 | 18 | 87 | 4.8 | 11.3 | 0.00 | 0.00 | 0.00 | 57 | 1021.7 |
| 20260904100530 | 18 | 119 | 4.8 | 6.4 | 0.00 | 0.00 | 0.00 | 58 | 1021.5 |
| 20260904100009 | 18 | 96 | 3.2 | 6.4 | 0.00 | 0.00 | 0.00 | 58 | 1021.5 |
| 20260904095602 | 18 | 98 | 3.2 | 6.4 | 0.00 | 0.00 | 0.00 | 59 | 1021.3 |
| 20260904095103 | 18 | 78 | 1.6 | 4.8 | 0.00 | 0.00 | 0.00 | 60 | 1021.4 |
| 20260904094506 | 18 | 94 | 0.0 | 3.2 | 0.00 | 0.00 | 0.00 | 60 | 1021.3 |
| 20260904094013 | 18 | 65 | 0.0 | 3.2 | 0.00 | 0.00 | 0.00 | 60 | 1021.2 |
| 20260904093521 | 18 | 65 | 1.6 | 6.4 | 0.00 | 0.00 | 0.00 | 60 | 1021.2 |
| 20260904093029 | 18 | 80 | 1.6 | 6.4 | 0.00 | 0.00 | 0.00 | 60 | 1021.3 |
| 20260904092536 | 18 | 101 | 3.2 | 6.4 | 0.00 | 0.00 | 0.00 | 60 | 1021.1 |
| 20260904092044 | 18 | 89 | 3.2 | 4.8 | 0.00 | 0.00 | 0.00 | 60 | 1021.2 |
| 20260904091552 | 18 | 5 | 0.0 | 3.2 | 0.00 | 0.00 | 0.00 | 59 | 1021.2 |
| 20260904091042 | 18 | 5 | 0.0 | 3.2 | 0.00 | 0.00 | 0.00 | 59 | 1021.2 |
| 20260904090550 | 18 | 5 | 0.0 | 3.2 | 0.00 | 0.00 | 0.00 | 59 | 1021.2 |
| 20260904090108 | 18 | 5 | 0.0 | 3.2 | 0.00 | 0.00 | 0.00 | 59 | 1021.1 |
| 20260904085502 | 18 | 5 | 0.0 | 3.2 | 0.00 | 0.00 | 0.00 | 59 | 1021.0 |
| 20260904085056 | 18 | 5 | 1.6 | 3.2 | 0.00 | 0.00 | 0.00 | 58 | 1021.0 |
| 20260904084612 | 18 | 116 | 1.6 | 3.2 | 0.00 | 0.00 | 0.00 | 58 | 1021.1 |
| 20260904084100 | 18 | 116 | 0.0 | 3.2 | 0.00 | 0.00 | 0.00 | 57 | 1021.2 |
| 20260904083604 | 19 | 116 | 0.0 | 3.2 | 0.00 | 0.00 | 0.00 | 57 | 1021.2 |
| 20260904083057 | 19 | 116 | 0.0 | 3.2 | 0.00 | 0.00 | 0.00 | 57 | 1021.2 |
| 20260904082550 | 19 | 116 | 0.0 | 3.2 | 0.00 | 0.00 | 0.00 | 57 | 1021.3 |
| 20260904082055 | 19 | 116 | 1.6 | 4.8 | 0.00 | 0.00 | 0.00 | 56 | 1021.3 |
| 20260904081603 | 19 | 116 | 3.2 | 4.8 | 0.00 | 0.00 | 0.00 | 56 | 1021.3 |
| 20260904081005 | 20 | 129 | 3.2 | 3.2 | 0.00 | 0.00 | 0.00 | 55 | 1021.3 |
| 20260904080602 | 20 | 129 | 1.6 | 3.2 | 0.00 | 0.00 | 0.00 | 55 | 1021.3 |
| 20260904080004 | 20 | 129 | 1.6 | 4.8 | 0.00 | 0.00 | 0.00 | 55 | 1021.3 |
| 20260904075600 | 20 | 129 | 3.2 | 4.8 | 0.00 | 0.00 | 0.00 | 55 | 1021.2 |
| 20260904075006 | 20 | 124 | 1.6 | 4.8 | 0.00 | 0.00 | 0.00 | 54 | 1021.3 |
| 20260904074607 | 20 | 140 | 1.6 | 4.8 | 0.00 | 0.00 | 0.00 | 54 | 1021.2 |
| 20260904074051 | 20 | 140 | 1.6 | 4.8 | 0.00 | 0.00 | 0.00 | 54 | 1021.2 |
| 20260904073600 | 20 | 151 | 1.6 | 6.4 | 0.00 | 0.00 | 0.00 | 54 | 1021.3 |
| 20260904073052 | 20 | 161 | 3.2 | 9.7 | 0.00 | 0.00 | 0.00 | 54 | 1021.3 |
| 20260904072542 | 20 | 142 | 4.8 | 9.7 | 0.00 | 0.00 | 0.00 | 53 | 1021.2 |
| 20260904072049 | 21 | 143 | 1.6 | 4.8 | 0.00 | 0.00 | 0.00 | 53 | 1021.2 |
| 20260904071607 | 21 | 159 | 1.6 | 6.4 | 0.00 | 0.00 | 0.00 | 53 | 1021.2 |
| 20260904071001 | 21 | 165 | 4.8 | 8.0 | 0.00 | 0.00 | 0.00 | 52 | 1021.3 |
| 20260904070557 | 21 | 141 | 4.8 | 6.4 | 0.00 | 0.00 | 0.00 | 52 | 1021.2 |
| 20260904070107 | 21 | 161 | 1.6 | 4.8 | 0.00 | 0.00 | 0.00 | 51 | 1021.3 |
| 20260904065554 | 21 | 185 | 1.6 | 9.7 | 0.00 | 0.00 | 0.00 | 51 | 1021.3 |
| 20260904065104 | 21 | 169 | 4.8 | 9.7 | 0.00 | 0.00 | 0.00 | 51 | 1021.3 |
| 20260904064555 | 21 | 151 | 4.8 | 9.7 | 0.00 | 0.00 | 0.00 | 51 | 1021.3 |
| 20260904064047 | 21 | 168 | 4.8 | 11.3 | 0.00 | 0.00 | 0.00 | 51 | 1021.2 |
| 20260904063555 | 21 | 142 | 6.4 | 11.3 | 0.00 | 0.00 | 0.00 | 50 | 1021.2 |
| 20260904063045 | 22 | 155 | 4.8 | 12.9 | 0.00 | 0.00 | 0.00 | 50 | 1021.1 |
| 20260904062553 | 22 | 142 | 4.8 | 12.9 | 0.00 | 0.00 | 0.00 | 50 | 1021.1 |
| 20260904062103 | 22 | 166 | 6.4 | 14.5 | 0.00 | 0.00 | 0.00 | 50 | 1021.1 |
| 20260904061504 | 22 | 154 | 8.0 | 14.5 | 0.00 | 0.00 | 0.00 | 50 | 1021.0 |
| 20260904061059 | 22 | 165 | 6.4 | 12.9 | 0.00 | 0.00 | 0.00 | 49 | 1021.1 |
| 20260904060504 | 22 | 171 | 6.4 | 12.9 | 0.00 | 0.00 | 0.00 | 49 | 1021.0 |
| 20260904060010 | 22 | 126 | 8.0 | 16.1 | 0.00 | 0.00 | 0.00 | 49 | 1021.0 |
| 20260904055604 | 22 | 145 | 6.4 | 16.1 | 0.00 | 0.00 | 0.00 | 49 | 1021.0 |
| 20260904055008 | 22 | 124 | 6.4 | 14.5 | 0.00 | 0.00 | 0.00 | 49 | 1021.1 |
| 20260904054606 | 22 | 160 | 8.0 | 14.5 | 0.00 | 0.00 | 0.00 | 49 | 1021.1 |
| 20260904054007 | 22 | 173 | 4.8 | 17.7 | 0.00 | 0.00 | 0.00 | 49 | 1021.1 |
| 20260904053603 | 22 | 146 | 8.0 | 17.7 | 0.00 | 0.00 | 0.00 | 49 | 1021.0 |
| 20260904053102 | 22 | 150 | 9.7 | 17.7 | 0.00 | 0.00 | 0.00 | 48 | 1021.0 |
| 20260904052603 | 22 | 162 | 8.0 | 16.1 | 0.00 | 0.00 | 0.00 | 48 | 1020.9 |
| 20260904052056 | 22 | 167 | 9.7 | 17.7 | 0.00 | 0.00 | 0.00 | 47 | 1021.0 |
| 20260904051546 | 23 | 161 | 4.8 | 14.5 | 0.00 | 0.00 | 0.00 | 47 | 1021.0 |
| 20260904051054 | 23 | 167 | 8.0 | 14.5 | 0.00 | 0.00 | 0.00 | 46 | 1021.0 |
| 20260904050603 | 23 | 160 | 4.8 | 11.3 | 0.00 | 0.00 | 0.00 | 47 | 1021.0 |
| 20260904050005 | 23 | 180 | 6.4 | 17.7 | 0.00 | 0.00 | 0.00 | 47 | 1020.9 |
| 20260904045559 | 23 | 144 | 9.7 | 22.5 | 0.00 | 0.00 | 0.00 | 47 | 1021.0 |
| 20260904045003 | 23 | 156 | 11.3 | 22.5 | 0.00 | 0.00 | 0.00 | 47 | 1021.0 |
| 20260904044600 | 23 | 173 | 11.3 | 17.7 | 0.00 | 0.00 | 0.00 | 46 | 1021.0 |
| 20260904044003 | 23 | 157 | 11.3 | 16.1 | 0.00 | 0.00 | 0.00 | 45 | 1021.0 |
| 20260904043602 | 23 | 192 | 9.7 | 24.1 | 0.00 | 0.00 | 0.00 | 45 | 1021.0 |
| 20260904043104 | 23 | 164 | 12.9 | 24.1 | 0.00 | 0.00 | 0.00 | 46 | 1021.0 |
| 20260904042604 | 23 | 151 | 9.7 | 24.1 | 0.00 | 0.00 | 0.00 | 46 | 1020.9 |
| 20260904042053 | 23 | 161 | 11.3 | 25.7 | 0.00 | 0.00 | 0.00 | 45 | 1021.0 |
| 20260904041601 | 23 | 140 | 12.9 | 25.7 | 0.00 | 0.00 | 0.00 | 44 | 1021.0 |
| 20260904041053 | 23 | 163 | 12.9 | 20.9 | 0.00 | 0.00 | 0.00 | 40 | 1021.0 |
| 20260904040543 | 23 | 121 | 3.2 | 6.4 | 0.00 | 0.00 | 0.00 | 35 | 1021.0 |
| 20260904040051 | 24 | 139 | 4.8 | 12.9 | 0.00 | 0.00 | 0.00 | 35 | 1020.8 |
| 20260904035559 | 24 | 143 | 6.4 | 12.9 | 0.00 | 0.00 | 0.00 | 35 | 1020.9 |
| 20260904035003 | 24 | 121 | 3.2 | 4.8 | 0.00 | 0.00 | 0.00 | 34 | 1020.8 |
| 20260904034557 | 24 | 110 | 3.2 | 3.2 | 0.00 | 0.00 | 0.00 | 34 | 1020.7 |
| 20260904034105 | 24 | 126 | 1.6 | 3.2 | 0.00 | 0.00 | 0.00 | 34 | 1020.7 |
| 20260904033559 | 24 | 126 | 1.6 | 3.2 | 0.00 | 0.00 | 0.00 | 34 | 1020.7 |
| 20260904033105 | 24 | 126 | 1.6 | 3.2 | 0.00 | 0.00 | 0.00 | 33 | 1020.7 |
| 20260904032558 | 24 | 126 | 1.6 | 3.2 | 0.00 | 0.00 | 0.00 | 33 | 1020.6 |
| 20260904032050 | 24 | 132 | 1.6 | 4.8 | 0.00 | 0.00 | 0.00 | 33 | 1020.6 |
| 20260904031558 | 24 | 132 | 3.2 | 4.8 | 0.00 | 0.00 | 0.00 | 33 | 1020.5 |
| 20260904031054 | 24 | 161 | 1.6 | 3.2 | 0.00 | 0.00 | 0.00 | 32 | 1020.5 |
| 20260904030541 | 24 | 174 | 1.6 | 1.6 | 0.00 | 0.00 | 0.00 | 32 | 1020.4 |
| 20260904030049 | 24 | 263 | 0.0 | 0.0 | 0.00 | 0.00 | 0.00 | 32 | 1020.3 |
| 20260904025559 | 24 | 263 | 0.0 | 0.0 | 0.00 | 0.00 | 0.00 | 32 | 1020.3 |
| 20260904025105 | 25 | 263 | 0.0 | 0.0 | 0.00 | 0.00 | 0.00 | 32 | 1020.3 |
| 20260904024556 | 25 | 263 | 0.0 | 0.0 | 0.00 | 0.00 | 0.00 | 32 | 1020.3 |
| 20260904024105 | 25 | 263 | 0.0 | 0.0 | 0.00 | 0.00 | 0.00 | 31 | 1020.2 |
| 20260904023556 | 25 | 263 | 0.0 | 0.0 | 0.00 | 0.00 | 0.00 | 31 | 1020.1 |
| 20260904023105 | 25 | 263 | 0.0 | 0.0 | 0.00 | 0.00 | 0.00 | 31 | 1020.1 |
| 20260904022558 | 25 | 263 | 0.0 | 0.0 | 0.00 | 0.00 | 0.00 | 31 | 1020.2 |
| 20260904022046 | 25 | 263 | 0.0 | 0.0 | 0.00 | 0.00 | 0.00 | 31 | 1020.1 |
| 20260904021557 | 26 | 263 | 0.0 | 0.0 | 0.00 | 0.00 | 0.00 | 30 | 1020.0 |
| 20260904021102 | 26 | 263 | 0.0 | 0.0 | 0.00 | 0.00 | 0.00 | 30 | 1020.0 |
| 20260904020505 | 26 | 263 | 0.0 | 0.0 | 0.00 | 0.00 | 0.00 | 30 | 1019.9 |
| 20260904020028 | 26 | 263 | 0.0 | 0.0 | 0.00 | 0.00 | 0.00 | 29 | 1019.9 |
| 20260904015536 | 26 | 263 | 0.0 | 0.0 | 0.00 | 0.00 | 0.00 | 29 | 1019.9 |
| 20260904015044 | 26 | 263 | 0.0 | 0.0 | 0.00 | 0.00 | 0.00 | 29 | 1020.0 |
| 20260904014556 | 27 | 263 | 0.0 | 0.0 | 0.00 | 0.00 | 0.00 | 29 | 1019.9 |
| 20260904014100 | 27 | 263 | 0.0 | 1.6 | 0.00 | 0.00 | 0.00 | 28 | 1020.0 |
| 20260904013502 | 27 | 263 | 0.0 | 3.2 | 0.00 | 0.00 | 0.00 | 28 | 1019.9 |
| 20260904013112 | 27 | 263 | 0.0 | 3.2 | 0.00 | 0.00 | 0.00 | 28 | 1019.9 |
| 20260904012502 | 27 | 263 | 1.6 | 6.4 | 0.00 | 0.00 | 0.00 | 27 | 1020.0 |
| 20260904012058 | 27 | 259 | 3.2 | 6.4 | 0.00 | 0.00 | 0.00 | 28 | 1020.0 |
| 20260904011553 | 27 | 251 | 1.6 | 6.4 | 0.00 | 0.00 | 0.00 | 27 | 1020.0 |
| 20260904011056 | 28 | 231 | 1.6 | 8.0 | 0.00 | 0.00 | 0.00 | 27 | 1020.0 |
| 20260904010604 | 28 | 277 | 3.2 | 11.3 | 0.00 | 0.00 | 0.00 | 27 | 1020.0 |
| 20260904010010 | 28 | 236 | 4.8 | 11.3 | 0.00 | 0.00 | 0.00 | 27 | 1020.0 |
| 20260904005603 | 28 | 209 | 1.6 | 9.7 | 0.00 | 0.00 | 0.00 | 26 | 1020.0 |
| 20260904005004 | 28 | 232 | 3.2 | 14.5 | 0.00 | 0.00 | 0.00 | 25 | 1020.0 |
| 20260904004602 | 29 | 276 | 6.4 | 14.5 | 0.00 | 0.00 | 0.00 | 25 | 1020.0 |
| 20260904004006 | 29 | 270 | 1.6 | 12.9 | 0.00 | 0.00 | 0.00 | 25 | 1020.1 |
| 20260904003601 | 29 | 267 | 6.4 | 20.9 | 0.00 | 0.00 | 0.00 | 25 | 1020.0 |
| 20260904003053 | 29 | 205 | 3.2 | 20.9 | 0.00 | 0.00 | 0.00 | 24 | 1020.1 |
| 20260904002604 | 30 | 294 | 3.2 | 9.7 | 0.00 | 0.00 | 0.00 | 25 | 1020.0 |
| 20260904002055 | 30 | 312 | 3.2 | 12.9 | 0.00 | 0.00 | 0.00 | 25 | 1020.0 |
| 20260904001543 | 30 | 329 | 6.4 | 12.9 | 0.00 | 0.00 | 0.00 | 26 | 1020.1 |
| 20260904001052 | 30 | 190 | 1.6 | 11.3 | 0.00 | 0.00 | 0.00 | 25 | 1020.1 |
| 20260904000559 | 30 | 194 | 1.6 | 12.9 | 0.00 | 0.00 | 0.00 | 25 | 1020.2 |
| 20260904000002 | 30 | 196 | 3.2 | 11.3 | 0.00 | 0.00 | 0.00 | 25 | 1020.1 |
| 20260903235557 | 30 | 168 | 3.2 | 8.0 | 0.00 | 0.00 | 0.00 | 25 | 1020.2 |
| 20260903235104 | 30 | 155 | 3.2 | 12.9 | 0.00 | 0.00 | 0.00 | 25 | 1020.1 |
| 20260903234558 | 30 | 220 | 4.8 | 9.7 | 0.00 | 0.00 | 0.00 | 25 | 1020.3 |
| 20260903234001 | 30 | 213 | 1.6 | 14.5 | 0.00 | 0.00 | 0.00 | 25 | 1020.2 |
| 20260903233557 | 30 | 134 | 6.4 | 14.5 | 0.00 | 0.00 | 0.00 | 25 | 1020.3 |
| 20260903233052 | 30 | 155 | 6.4 | 16.1 | 0.00 | 0.00 | 0.00 | 25 | 1020.3 |
| 20260903232559 | 30 | 169 | 9.7 | 16.1 | 0.00 | 0.00 | 0.00 | 25 | 1020.3 |
| 20260903232052 | 30 | 185 | 6.4 | 14.5 | 0.00 | 0.00 | 0.00 | 25 | 1020.4 |
| 20260903231543 | 30 | 178 | 6.4 | 16.1 | 0.00 | 0.00 | 0.00 | 25 | 1020.4 |
| 20260903231050 | 30 | 171 | 6.4 | 16.1 | 0.00 | 0.00 | 0.00 | 26 | 1020.4 |
| 20260903230542 | 30 | 304 | 3.2 | 11.3 | 0.00 | 0.00 | 0.00 | 25 | 1020.5 |
| 20260903230049 | 30 | 203 | 6.4 | 11.3 | 0.00 | 0.00 | 0.00 | 25 | 1020.5 |
| 20260903225557 | 31 | 186 | 3.2 | 8.0 | 0.00 | 0.00 | 0.00 | 25 | 1020.5 |
| 20260903225106 | 31 | 244 | 1.6 | 12.9 | 0.00 | 0.00 | 0.00 | 25 | 1020.5 |
| 20260903224555 | 31 | 220 | 1.6 | 11.3 | 0.00 | 0.00 | 0.00 | 25 | 1020.6 |
| 20260903224105 | 31 | 263 | 1.6 | 8.0 | 0.00 | 0.00 | 0.00 | 25 | 1020.6 |
| 20260903223559 | 31 | 132 | 1.6 | 14.5 | 0.00 | 0.00 | 0.00 | 25 | 1020.7 |
| 20260903223111 | 31 | 197 | 8.0 | 14.5 | 0.00 | 0.00 | 0.00 | 25 | 1020.8 |
| 20260903222557 | 31 | 259 | 3.2 | 9.7 | 0.00 | 0.00 | 0.00 | 26 | 1020.7 |